Time,TemperatureF,DewpointF,PressureIn,WindDirection,WindDirectionDegrees,WindSpeedMPH,WindSpeedGustMPH,Humidity,HourlyPrecipIn,Conditions,Clouds,dailyrainin,SoftwareType,DateUTC
2013-07-20 00:00:00,69.7,59.9,29.88,ESE,105,0.0,0.0,71,0.00,,,0.24,Wunderground v.1.15,2013-07-20 06:00:00,
2013-07-20 00:05:00,69.8,60.0,29.88,ESE,105,0.0,0.0,71,0.00,,,0.00,Wunderground v.1.15,2013-07-20 06:05:00,
2013-07-20 00:10:00,70.0,60.2,29.88,ESE,105,0.0,0.0,71,0.00,,,0.00,Wunderground v.1.15,2013-07-20 06:10:00,
2013-07-20 00:15:00,70.1,60.7,29.88,ESE,105,0.0,0.0,72,0.00,,,0.00,Wunderground v.1.15,2013-07-20 06:15:00,
2013-07-20 00:20:00,70.0,60.6,29.88,ESE,105,0.0,0.0,72,0.00,,,0.00,Wunderground v.1.15,2013-07-20 06:20:00,
2013-07-20 00:24:00,69.9,60.1,29.88,ESE,105,0.0,0.0,71,0.00,,,0.00,Wunderground v.1.15,2013-07-20 06:24:00,
2013-07-20 00:29:00,70.0,59.8,29.88,ESE,105,0.0,0.0,70,0.00,,,0.00,Wunderground v.1.15,2013-07-20 06:29:00,
2013-07-20 00:40:00,70.1,59.0,29.89,ESE,105,0.0,0.0,68,0.00,,,0.00,Wunderground v.1.15,2013-07-20 06:40:00,
2013-07-20 00:45:00,70.2,58.7,29.89,ESE,105,0.0,1.0,67,0.00,,,0.00,Wunderground v.1.15,2013-07-20 06:45:00,
2013-07-20 00:50:00,70.4,58.5,29.89,ESE,105,0.0,0.0,66,0.00,,,0.00,Wunderground v.1.15,2013-07-20 06:50:00,
2013-07-20 00:55:00,70.4,58.9,29.89,ESE,105,0.0,0.0,67,0.00,,,0.00,Wunderground v.1.15,2013-07-20 06:55:00,
2013-07-20 01:00:00,70.4,59.3,29.89,ESE,105,0.0,0.0,68,0.00,,,0.00,Wunderground v.1.15,2013-07-20 07:00:00,
2013-07-20 01:05:00,70.2,59.1,29.89,ESE,105,0.0,0.0,68,0.00,,,0.00,Wunderground v.1.15,2013-07-20 07:05:00,
2013-07-20 01:10:00,70.1,59.0,29.89,ESE,105,0.0,0.0,68,0.00,,,0.00,Wunderground v.1.15,2013-07-20 07:10:00,
2013-07-20 01:15:00,70.0,58.5,29.89,ESE,105,0.0,0.0,67,0.00,,,0.00,Wunderground v.1.15,2013-07-20 07:15:00,
2013-07-20 01:20:00,70.1,57.8,29.89,ESE,105,0.0,0.0,65,0.00,,,0.00,Wunderground v.1.15,2013-07-20 07:20:00,
2013-07-20 01:25:00,70.0,57.7,29.89,ESE,105,0.0,0.0,65,0.00,,,0.00,Wunderground v.1.15,2013-07-20 07:25:00,
2013-07-20 01:29:00,69.9,58.4,29.89,ESE,105,0.0,0.0,67,0.00,,,0.00,Wunderground v.1.15,2013-07-20 07:29:00,
2013-07-20 01:34:00,69.5,58.1,29.89,ESE,105,0.0,0.0,67,0.00,,,0.00,Wunderground v.1.15,2013-07-20 07:34:00,
2013-07-20 01:39:00,69.2,58.2,29.89,ESE,105,0.0,0.0,68,0.00,,,0.00,Wunderground v.1.15,2013-07-20 07:39:00,
2013-07-20 01:45:00,69.0,58.8,29.89,ESE,105,0.0,0.0,70,0.00,,,0.00,Wunderground v.1.15,2013-07-20 07:45:00,
2013-07-20 01:50:00,68.8,58.6,29.90,ESE,105,0.0,2.0,70,0.00,,,0.00,Wunderground v.1.15,2013-07-20 07:50:00,
2013-07-20 01:55:00,68.7,58.1,29.90,ESE,105,0.0,2.0,69,0.00,,,0.00,Wunderground v.1.15,2013-07-20 07:55:00,
2013-07-20 02:00:00,68.6,58.0,29.90,ESE,105,0.0,0.0,69,0.00,,,0.00,Wunderground v.1.15,2013-07-20 08:00:00,
2013-07-20 02:05:00,68.4,57.8,29.89,ESE,105,0.0,0.0,69,0.00,,,0.00,Wunderground v.1.15,2013-07-20 08:05:00,
2013-07-20 02:15:00,67.9,57.8,29.89,ESE,105,1.0,1.0,70,0.00,,,0.00,Wunderground v.1.15,2013-07-20 08:15:00,
2013-07-20 02:20:00,67.8,57.7,29.89,East,87,0.0,2.0,70,0.00,,,0.00,Wunderground v.1.15,2013-07-20 08:20:00,
2013-07-20 02:25:00,67.7,57.6,29.89,East,87,0.0,2.0,70,0.00,,,0.00,Wunderground v.1.15,2013-07-20 08:25:00,
2013-07-20 02:30:00,67.6,57.9,29.89,East,87,0.0,2.0,71,0.00,,,0.00,Wunderground v.1.15,2013-07-20 08:30:00,
2013-07-20 02:34:00,67.6,57.9,29.88,East,87,0.0,2.0,71,0.00,,,0.00,Wunderground v.1.15,2013-07-20 08:34:00,
2013-07-20 02:39:00,67.6,57.5,29.88,East,87,0.0,1.0,70,0.00,,,0.00,Wunderground v.1.15,2013-07-20 08:39:00,
2013-07-20 02:50:00,67.5,57.4,29.88,East,87,0.0,0.0,70,0.00,,,0.00,Wunderground v.1.15,2013-07-20 08:50:00,
2013-07-20 02:55:00,67.4,57.3,29.88,East,87,0.0,0.0,70,0.00,,,0.00,Wunderground v.1.15,2013-07-20 08:55:00,
2013-07-20 03:00:00,67.3,57.6,29.88,East,87,0.0,0.0,71,0.00,,,0.00,Wunderground v.1.15,2013-07-20 09:00:00,
2013-07-20 03:05:00,67.2,57.5,29.88,East,87,0.0,0.0,71,0.00,,,0.00,Wunderground v.1.15,2013-07-20 09:05:00,
2013-07-20 03:10:00,67.1,57.4,29.88,East,87,0.0,0.0,71,0.00,,,0.00,Wunderground v.1.15,2013-07-20 09:10:00,
2013-07-20 03:15:00,67.0,57.7,29.88,East,87,0.0,0.0,72,0.00,,,0.00,Wunderground v.1.15,2013-07-20 09:15:00,
2013-07-20 03:20:00,66.9,57.6,29.88,East,87,0.0,0.0,72,0.00,,,0.00,Wunderground v.1.15,2013-07-20 09:20:00,
2013-07-20 03:25:00,66.8,57.5,29.88,East,87,0.0,0.0,72,0.00,,,0.00,Wunderground v.1.15,2013-07-20 09:25:00,
2013-07-20 03:30:00,66.7,57.8,29.88,East,87,0.0,2.0,73,0.00,,,0.00,Wunderground v.1.15,2013-07-20 09:30:00,
2013-07-20 03:35:00,66.6,57.7,29.87,East,87,0.0,2.0,73,0.00,,,0.00,Wunderground v.1.15,2013-07-20 09:35:00,
2013-07-20 03:39:00,66.6,57.7,29.87,East,87,0.0,0.0,73,0.00,,,0.00,Wunderground v.1.15,2013-07-20 09:39:00,
2013-07-20 03:44:00,66.7,57.8,29.87,East,87,0.0,0.0,73,0.00,,,0.00,Wunderground v.1.15,2013-07-20 09:44:00,
2013-07-20 03:49:00,66.7,57.8,29.87,East,87,0.0,0.0,73,0.00,,,0.00,Wunderground v.1.15,2013-07-20 09:49:00,
2013-07-20 03:55:00,66.6,58.1,29.87,East,87,0.0,0.0,74,0.00,,,0.00,Wunderground v.1.15,2013-07-20 09:55:00,
2013-07-20 04:00:00,66.5,57.6,29.87,East,87,0.0,0.0,73,0.00,,,0.00,Wunderground v.1.15,2013-07-20 10:00:00,
2013-07-20 04:05:00,66.5,58.0,29.87,East,87,0.0,0.0,74,0.00,,,0.00,Wunderground v.1.15,2013-07-20 10:05:00,
2013-07-20 04:10:00,66.4,58.2,29.86,East,87,0.0,0.0,75,0.00,,,0.00,Wunderground v.1.15,2013-07-20 10:10:00,
2013-07-20 04:20:00,66.3,58.5,29.87,East,87,0.0,0.0,76,0.00,,,0.00,Wunderground v.1.15,2013-07-20 10:20:00,
2013-07-20 04:25:00,66.3,58.1,29.87,East,87,0.0,0.0,75,0.00,,,0.00,Wunderground v.1.15,2013-07-20 10:25:00,
2013-07-20 04:30:00,66.5,58.0,29.87,East,87,0.0,0.0,74,0.00,,,0.00,Wunderground v.1.15,2013-07-20 10:30:00,
2013-07-20 04:35:00,66.7,58.1,29.87,North,350,0.0,1.0,74,0.00,,,0.00,Wunderground v.1.15,2013-07-20 10:35:00,
2013-07-20 04:40:00,67.1,57.8,29.87,North,350,0.0,0.0,72,0.00,,,0.00,Wunderground v.1.15,2013-07-20 10:40:00,
2013-07-20 04:44:00,67.3,58.0,29.87,WNW,286,0.0,0.0,72,0.00,,,0.00,Wunderground v.1.15,2013-07-20 10:44:00,
2013-07-20 04:49:00,67.2,58.2,29.87,WNW,286,0.0,2.0,73,0.00,,,0.00,Wunderground v.1.15,2013-07-20 10:49:00,
2013-07-20 04:54:00,67.0,58.1,29.87,WNW,286,0.0,2.0,73,0.00,,,0.00,Wunderground v.1.15,2013-07-20 10:54:00,
2013-07-20 05:00:00,66.8,57.9,29.87,WNW,286,0.0,0.0,73,0.00,,,0.00,Wunderground v.1.15,2013-07-20 11:00:00,
2013-07-20 05:05:00,66.6,57.7,29.86,WNW,286,0.0,0.0,73,0.00,,,0.00,Wunderground v.1.15,2013-07-20 11:05:00,
2013-07-20 05:10:00,66.5,56.8,29.86,WNW,286,0.0,0.0,71,0.00,,,0.00,Wunderground v.1.15,2013-07-20 11:10:00,
2013-07-20 05:15:00,67.1,56.2,29.86,WNW,286,0.0,0.0,68,0.00,,,0.00,Wunderground v.1.15,2013-07-20 11:15:00,
2013-07-20 05:20:00,68.3,56.5,29.86,WNW,288,0.0,0.0,66,0.00,,,0.00,Wunderground v.1.15,2013-07-20 11:20:00,
2013-07-20 05:25:00,69.0,56.3,29.86,East,92,1.0,1.0,64,0.00,,,0.00,Wunderground v.1.15,2013-07-20 11:25:00,
2013-07-20 05:30:00,69.3,57.0,29.86,East,92,1.0,1.0,65,0.00,,,0.00,Wunderground v.1.15,2013-07-20 11:30:00,
2013-07-20 05:35:00,69.2,56.9,29.85,East,92,0.0,1.0,65,0.00,,,0.00,Wunderground v.1.15,2013-07-20 11:35:00,
2013-07-20 05:40:00,68.9,57.1,29.86,East,90,1.0,4.0,66,0.00,,,0.00,Wunderground v.1.15,2013-07-20 11:40:00,
2013-07-20 05:45:00,68.4,57.4,29.85,East,90,1.0,4.0,68,0.00,,,0.01,Wunderground v.1.15,2013-07-20 11:45:00,
2013-07-20 05:49:00,67.8,57.7,29.86,East,91,0.0,0.0,70,0.00,,,0.01,Wunderground v.1.15,2013-07-20 11:49:00,
2013-07-20 05:54:00,67.3,57.2,29.86,East,92,1.0,1.0,70,0.00,,,0.01,Wunderground v.1.15,2013-07-20 11:54:00,
2013-07-20 05:59:00,67.0,57.7,29.87,East,92,2.0,2.0,72,0.00,,,0.01,Wunderground v.1.15,2013-07-20 11:59:00,
2013-07-20 06:05:00,66.8,58.2,29.87,North,9,2.0,3.0,74,0.00,,,0.01,Wunderground v.1.15,2013-07-20 12:05:00,
2013-07-20 06:10:00,66.6,58.4,29.87,North,9,2.0,2.0,75,0.00,,,0.01,Wunderground v.1.15,2013-07-20 12:10:00,
2013-07-20 06:15:00,66.5,58.7,29.87,North,9,1.0,2.0,76,0.00,,,0.01,Wunderground v.1.15,2013-07-20 12:15:00,
2013-07-20 06:20:00,66.4,58.6,29.87,North,9,1.0,1.0,76,0.00,,,0.01,Wunderground v.1.15,2013-07-20 12:20:00,
2013-07-20 06:25:00,66.4,59.0,29.88,North,9,0.0,1.0,77,0.00,,,0.01,Wunderground v.1.15,2013-07-20 12:25:00,
2013-07-20 06:30:00,66.5,59.1,29.88,North,9,0.0,5.0,77,0.00,,,0.01,Wunderground v.1.15,2013-07-20 12:30:00,
2013-07-20 06:35:00,66.6,59.2,29.88,North,9,0.0,5.0,77,0.00,,,0.01,Wunderground v.1.15,2013-07-20 12:35:00,
2013-07-20 06:40:00,66.7,58.9,29.88,North,9,0.0,0.0,76,0.00,,,0.01,Wunderground v.1.15,2013-07-20 12:40:00,
2013-07-20 06:45:00,67.0,58.8,29.88,North,9,0.0,0.0,75,0.00,,,0.01,Wunderground v.1.15,2013-07-20 12:45:00,
2013-07-20 06:54:00,67.5,58.5,29.88,North,9,0.0,0.0,73,0.00,,,0.01,Wunderground v.1.15,2013-07-20 12:54:00,
2013-07-20 06:59:00,67.7,59.5,29.88,North,9,0.0,0.0,75,0.00,,,0.01,Wunderground v.1.15,2013-07-20 12:59:00,
2013-07-20 07:04:00,67.8,59.6,29.88,North,9,0.0,0.0,75,0.00,,,0.01,Wunderground v.1.15,2013-07-20 13:04:00,
2013-07-20 07:10:00,67.9,59.7,29.88,North,9,0.0,0.0,75,0.00,,,0.01,Wunderground v.1.15,2013-07-20 13:10:00,
2013-07-20 07:15:00,67.9,59.3,29.88,North,9,0.0,0.0,74,0.00,,,0.01,Wunderground v.1.15,2013-07-20 13:15:00,
2013-07-20 07:20:00,67.9,58.5,29.88,North,9,0.0,0.0,72,0.00,,,0.01,Wunderground v.1.15,2013-07-20 13:20:00,
2013-07-20 07:25:00,67.7,58.3,29.88,North,9,0.0,0.0,72,0.00,,,0.01,Wunderground v.1.15,2013-07-20 13:25:00,
2013-07-20 07:30:00,67.5,58.5,29.88,North,9,0.0,1.0,73,0.00,,,0.01,Wunderground v.1.15,2013-07-20 13:30:00,
2013-07-20 07:35:00,67.4,58.1,29.88,North,9,0.0,1.0,72,0.00,,,0.01,Wunderground v.1.15,2013-07-20 13:35:00,
2013-07-20 07:40:00,67.5,58.2,29.88,North,9,0.0,0.0,72,0.00,,,0.01,Wunderground v.1.15,2013-07-20 13:40:00,
2013-07-20 07:45:00,67.7,58.3,29.88,North,9,0.0,0.0,72,0.00,,,0.01,Wunderground v.1.15,2013-07-20 13:45:00,
2013-07-20 07:50:00,68.0,57.8,29.88,North,9,0.0,0.0,70,0.00,,,0.01,Wunderground v.1.15,2013-07-20 13:50:00,
2013-07-20 07:59:00,68.7,58.1,29.88,North,9,0.0,0.0,69,0.00,,,0.01,Wunderground v.1.15,2013-07-20 13:59:00,
2013-07-20 08:04:00,69.1,58.5,29.88,North,9,0.0,0.0,69,0.00,,,0.01,Wunderground v.1.15,2013-07-20 14:04:00,
2013-07-20 08:09:00,69.5,58.5,29.88,North,9,0.0,0.0,68,0.00,,,0.01,Wunderground v.1.15,2013-07-20 14:09:00,
2013-07-20 08:15:00,69.8,58.8,29.88,North,9,0.0,0.0,68,0.00,,,0.01,Wunderground v.1.15,2013-07-20 14:15:00,
2013-07-20 08:20:00,70.0,58.5,29.88,North,9,0.0,1.0,67,0.00,,,0.01,Wunderground v.1.15,2013-07-20 14:20:00,
2013-07-20 08:30:00,70.5,59.0,29.88,North,9,0.0,1.0,67,0.00,,,0.01,Wunderground v.1.15,2013-07-20 14:30:00,
2013-07-20 08:35:00,70.8,58.9,29.89,North,9,0.0,1.0,66,0.00,,,0.01,Wunderground v.1.15,2013-07-20 14:35:00,
2013-07-20 08:40:00,71.1,58.7,29.89,North,9,0.0,0.0,65,0.00,,,0.01,Wunderground v.1.15,2013-07-20 14:40:00,
2013-07-20 08:45:00,71.4,59.0,29.89,North,9,0.0,0.0,65,0.00,,,0.01,Wunderground v.1.15,2013-07-20 14:45:00,
2013-07-20 08:50:00,72.0,59.2,29.89,North,9,0.0,0.0,64,0.00,,,0.01,Wunderground v.1.15,2013-07-20 14:50:00,
2013-07-20 08:59:00,72.9,59.1,29.90,North,9,0.0,0.0,62,0.00,,,0.01,Wunderground v.1.15,2013-07-20 14:59:00,
2013-07-20 09:04:00,73.0,59.2,29.90,North,9,0.0,0.0,62,0.00,,,0.01,Wunderground v.1.15,2013-07-20 15:04:00,
2013-07-20 09:09:00,73.1,58.8,29.90,North,9,0.0,0.0,61,0.00,,,0.01,Wunderground v.1.15,2013-07-20 15:09:00,
2013-07-20 09:14:00,73.2,58.9,29.90,North,9,0.0,0.0,61,0.00,,,0.01,Wunderground v.1.15,2013-07-20 15:14:00,
2013-07-20 09:20:00,73.2,59.4,29.90,North,9,1.0,1.0,62,0.00,,,0.01,Wunderground v.1.15,2013-07-20 15:20:00,
2013-07-20 09:25:00,73.5,59.2,29.90,North,9,1.0,1.0,61,0.00,,,0.01,Wunderground v.1.15,2013-07-20 15:25:00,
2013-07-20 09:30:00,73.9,59.1,29.90,North,9,0.0,2.0,60,0.00,,,0.01,Wunderground v.1.15,2013-07-20 15:30:00,
2013-07-20 09:35:00,74.2,58.5,29.89,North,9,0.0,2.0,58,0.00,,,0.01,Wunderground v.1.15,2013-07-20 15:35:00,
2013-07-20 09:40:00,74.5,58.8,29.89,North,9,0.0,3.0,58,0.00,,,0.01,Wunderground v.1.15,2013-07-20 15:40:00,
2013-07-20 09:45:00,74.7,58.9,29.89,North,9,1.0,3.0,58,0.00,,,0.01,Wunderground v.1.15,2013-07-20 15:45:00,
2013-07-20 09:50:00,75.1,59.3,29.89,North,360,0.0,0.0,58,0.00,,,0.01,Wunderground v.1.15,2013-07-20 15:50:00,
2013-07-20 09:55:00,75.5,58.7,29.89,North,360,0.0,0.0,56,0.00,,,0.01,Wunderground v.1.15,2013-07-20 15:55:00,
2013-07-20 09:59:00,75.8,60.0,29.89,North,360,0.0,2.0,58,0.00,,,0.01,Wunderground v.1.15,2013-07-20 15:59:00,
2013-07-20 10:04:00,76.2,58.3,29.90,North,360,0.0,2.0,54,0.00,,,0.01,Wunderground v.1.15,2013-07-20 16:04:00,
2013-07-20 10:09:00,76.2,58.9,29.89,North,360,1.0,1.0,55,0.00,,,0.01,Wunderground v.1.15,2013-07-20 16:09:00,
2013-07-20 10:14:00,76.0,58.7,29.89,North,355,1.0,1.0,55,0.00,,,0.01,Wunderground v.1.15,2013-07-20 16:14:00,
2013-07-20 10:19:00,76.0,59.2,29.89,North,355,1.0,1.0,56,0.00,,,0.01,Wunderground v.1.15,2013-07-20 16:19:00,
2013-07-20 10:25:00,76.0,59.2,29.89,North,355,0.0,1.0,56,0.00,,,0.01,Wunderground v.1.15,2013-07-20 16:25:00,
2013-07-20 10:30:00,76.4,59.0,29.89,NW,321,0.0,2.0,55,0.00,,,0.01,Wunderground v.1.15,2013-07-20 16:30:00,
2013-07-20 10:35:00,76.5,58.1,29.89,NW,321,0.0,2.0,53,0.00,,,0.01,Wunderground v.1.15,2013-07-20 16:35:00,
2013-07-20 10:40:00,76.6,58.7,29.88,NW,321,0.0,0.0,54,0.00,,,0.01,Wunderground v.1.15,2013-07-20 16:40:00,
2013-07-20 10:45:00,76.9,58.5,29.88,NW,321,0.0,0.0,53,0.00,,,0.01,Wunderground v.1.15,2013-07-20 16:45:00,
2013-07-20 10:50:00,77.3,58.3,29.88,NW,315,1.0,1.0,52,0.00,,,0.01,Wunderground v.1.15,2013-07-20 16:50:00,
2013-07-20 10:55:00,77.4,58.4,29.88,NW,315,1.0,1.0,52,0.00,,,0.01,Wunderground v.1.15,2013-07-20 16:55:00,
2013-07-20 11:04:00,78.0,58.9,29.88,NW,306,0.0,0.0,52,0.00,,,0.01,Wunderground v.1.15,2013-07-20 17:04:00,
2013-07-20 11:09:00,78.5,59.4,29.87,WNW,302,0.0,0.0,52,0.00,,,0.01,Wunderground v.1.15,2013-07-20 17:09:00,
2013-07-20 11:14:00,79.2,59.5,29.87,WNW,302,0.0,0.0,51,0.00,,,0.01,Wunderground v.1.15,2013-07-20 17:14:00,
2013-07-20 11:19:00,79.9,59.6,29.87,WNW,302,0.0,0.0,50,0.00,,,0.01,Wunderground v.1.15,2013-07-20 17:19:00,
2013-07-20 11:24:00,80.2,59.3,29.87,WNW,303,0.0,3.0,49,0.00,,,0.01,Wunderground v.1.15,2013-07-20 17:24:00,
2013-07-20 11:29:00,79.9,58.5,29.87,WNW,296,1.0,1.0,48,0.00,,,0.01,Wunderground v.1.15,2013-07-20 17:29:00,
2013-07-20 11:35:00,79.9,59.0,29.86,WNW,296,0.0,1.0,49,0.00,,,0.01,Wunderground v.1.15,2013-07-20 17:35:00,
2013-07-20 11:40:00,80.1,58.0,29.86,WNW,296,0.0,0.0,47,0.00,,,0.01,Wunderground v.1.15,2013-07-20 17:40:00,
2013-07-20 11:45:00,80.1,58.6,29.85,NW,304,1.0,1.0,48,0.00,,,0.01,Wunderground v.1.15,2013-07-20 17:45:00,
2013-07-20 11:50:00,79.9,58.5,29.85,WNW,298,1.0,1.0,48,0.00,,,0.01,Wunderground v.1.15,2013-07-20 17:50:00,
2013-07-20 11:55:00,80.3,58.2,29.85,WNW,298,1.0,1.0,47,0.00,,,0.01,Wunderground v.1.15,2013-07-20 17:55:00,
2013-07-20 12:00:00,80.7,58.6,29.85,WNW,298,0.0,0.0,47,0.00,,,0.01,Wunderground v.1.15,2013-07-20 18:00:00,
2013-07-20 12:10:00,81.6,58.2,29.84,NNW,343,0.0,0.0,45,0.00,,,0.01,Wunderground v.1.15,2013-07-20 18:10:00,
2013-07-20 12:15:00,82.1,60.5,29.84,NNW,342,1.0,1.0,48,0.00,,,0.01,Wunderground v.1.15,2013-07-20 18:15:00,
2013-07-20 12:20:00,83.0,59.5,29.84,NNW,327,0.0,0.0,45,0.00,,,0.01,Wunderground v.1.15,2013-07-20 18:20:00,
2013-07-20 12:25:00,83.4,59.2,29.84,NNW,327,0.0,0.0,44,0.00,,,0.01,Wunderground v.1.15,2013-07-20 18:25:00,
2013-07-20 12:29:00,83.7,58.8,29.84,NNW,327,0.0,4.0,43,0.00,,,0.01,Wunderground v.1.15,2013-07-20 18:29:00,
2013-07-20 12:39:00,84.7,59.7,29.83,NNE,13,1.0,1.0,43,0.00,,,0.01,Wunderground v.1.15,2013-07-20 18:39:00,
2013-07-20 12:50:00,86.1,60.3,29.83,NNE,12,0.0,2.0,42,0.00,,,0.01,Wunderground v.1.15,2013-07-20 18:50:00,
2013-07-20 13:00:00,85.7,58.6,29.82,North,11,0.0,2.0,40,0.00,,,0.01,Wunderground v.1.15,2013-07-20 19:00:00,
2013-07-20 13:05:00,85.1,58.1,29.82,North,355,1.0,2.0,40,0.00,,,0.01,Wunderground v.1.15,2013-07-20 19:05:00,
2013-07-20 13:14:00,83.9,57.7,29.82,North,355,0.0,1.0,41,0.00,,,0.01,Wunderground v.1.15,2013-07-20 19:14:00,
2013-07-20 13:20:00,83.4,57.9,29.82,North,355,0.0,0.0,42,0.00,,,0.01,Wunderground v.1.15,2013-07-20 19:20:00,
2013-07-20 13:25:00,83.1,58.3,29.82,North,355,0.0,0.0,43,0.00,,,0.01,Wunderground v.1.15,2013-07-20 19:25:00,
2013-07-20 13:30:00,82.9,58.7,29.81,North,355,0.0,2.0,44,0.00,,,0.01,Wunderground v.1.15,2013-07-20 19:30:00,
2013-07-20 13:35:00,82.7,57.9,29.81,North,355,0.0,2.0,43,0.00,,,0.01,Wunderground v.1.15,2013-07-20 19:35:00,
2013-07-20 13:40:00,82.6,58.5,29.80,North,355,0.0,0.0,44,0.00,,,0.01,Wunderground v.1.15,2013-07-20 19:40:00,
2013-07-20 13:55:00,82.2,58.7,29.80,North,355,0.0,1.0,45,0.00,,,0.01,Wunderground v.1.15,2013-07-20 19:55:00,
2013-07-20 14:00:00,82.1,59.9,29.80,East,98,0.0,0.0,47,0.00,,,0.01,Wunderground v.1.15,2013-07-20 20:00:00,
2013-07-20 14:05:00,81.5,57.5,29.80,East,98,1.0,1.0,44,0.00,,,0.01,Wunderground v.1.15,2013-07-20 20:05:00,
2013-07-20 14:10:00,81.6,56.3,29.80,East,97,1.0,2.0,42,0.00,,,0.01,Wunderground v.1.15,2013-07-20 20:10:00,
2013-07-20 14:14:00,81.8,57.1,29.80,East,86,1.0,2.0,43,0.00,,,0.01,Wunderground v.1.15,2013-07-20 20:14:00,
2013-07-20 14:19:00,82.5,57.7,29.80,East,86,1.0,1.0,43,0.00,,,0.01,Wunderground v.1.15,2013-07-20 20:19:00,
2013-07-20 14:24:00,83.6,58.7,29.80,East,88,1.0,1.0,43,0.00,,,0.01,Wunderground v.1.15,2013-07-20 20:24:00,
2013-07-20 14:30:00,84.9,59.9,29.79,East,88,0.0,2.0,43,0.00,,,0.01,Wunderground v.1.15,2013-07-20 20:30:00,
2013-07-20 14:40:00,86.7,60.2,29.79,SW,232,1.0,1.0,41,0.00,,,0.01,Wunderground v.1.15,2013-07-20 20:40:00,
2013-07-20 14:45:00,87.4,58.7,29.78,WSW,257,1.0,1.0,38,0.00,,,0.01,Wunderground v.1.15,2013-07-20 20:45:00,
2013-07-20 14:50:00,87.7,58.9,29.78,West,265,1.0,1.0,38,0.00,,,0.01,Wunderground v.1.15,2013-07-20 20:50:00,
2013-07-20 14:55:00,88.3,59.5,29.78,SW,227,1.0,1.0,38,0.00,,,0.01,Wunderground v.1.15,2013-07-20 20:55:00,
2013-07-20 15:00:00,88.7,58.3,29.77,South,188,1.0,1.0,36,0.00,,,0.01,Wunderground v.1.15,2013-07-20 21:00:00,
2013-07-20 15:05:00,89.1,57.9,29.77,SSW,213,1.0,1.0,35,0.00,,,0.01,Wunderground v.1.15,2013-07-20 21:05:00,
2013-07-20 15:10:00,89.8,57.7,29.77,SW,214,1.0,1.0,34,0.00,,,0.01,Wunderground v.1.15,2013-07-20 21:10:00,
2013-07-20 15:15:00,90.4,57.4,29.77,SSW,213,1.0,1.0,33,0.00,,,0.01,Wunderground v.1.15,2013-07-20 21:15:00,
2013-07-20 15:19:00,90.5,56.6,29.76,WSW,251,1.0,1.0,32,0.00,,,0.01,Wunderground v.1.15,2013-07-20 21:19:00,
2013-07-20 15:24:00,90.6,55.8,29.76,WSW,249,1.0,1.0,31,0.00,,,0.01,Wunderground v.1.15,2013-07-20 21:24:00,
2013-07-20 15:34:00,90.8,54.2,29.76,WSW,252,1.0,2.0,29,0.00,,,0.01,Wunderground v.1.15,2013-07-20 21:34:00,
2013-07-20 15:39:00,90.1,54.5,29.75,WSW,252,1.0,1.0,30,0.00,,,0.01,Wunderground v.1.15,2013-07-20 21:39:00,
2013-07-20 15:45:00,89.7,55.0,29.75,NNE,30,1.0,1.0,31,0.00,,,0.01,Wunderground v.1.15,2013-07-20 21:45:00,
2013-07-20 15:50:00,89.5,54.9,29.75,WSW,240,1.0,1.0,31,0.00,,,0.01,Wunderground v.1.15,2013-07-20 21:50:00,
2013-07-20 15:55:00,89.7,55.9,29.75,WSW,242,1.0,1.0,32,0.00,,,0.01,Wunderground v.1.15,2013-07-20 21:55:00,
2013-07-20 16:05:00,88.8,56.8,29.75,WSW,238,0.0,1.0,34,0.00,,,0.01,Wunderground v.1.15,2013-07-20 22:05:00,
2013-07-20 16:10:00,89.2,57.2,29.75,SW,236,1.0,1.0,34,0.00,,,0.01,Wunderground v.1.15,2013-07-20 22:10:00,
2013-07-20 16:15:00,89.5,56.6,29.76,WSW,257,1.0,1.0,33,0.00,,,0.01,Wunderground v.1.15,2013-07-20 22:15:00,
2013-07-20 16:24:00,89.3,55.6,29.75,WSW,257,0.0,1.0,32,0.00,,,0.01,Wunderground v.1.15,2013-07-20 22:24:00,
2013-07-20 16:34:00,89.1,57.9,29.75,WSW,242,0.0,2.0,35,0.00,,,0.01,Wunderground v.1.15,2013-07-20 22:34:00,
2013-07-20 16:39:00,89.5,56.6,29.75,WSW,244,1.0,1.0,33,0.00,,,0.01,Wunderground v.1.15,2013-07-20 22:39:00,
2013-07-20 16:49:00,89.9,56.9,29.75,WSW,244,0.0,0.0,33,0.00,,,0.01,Wunderground v.1.15,2013-07-20 22:49:00,
2013-07-20 16:55:00,90.4,57.4,29.75,WSW,243,0.0,3.0,33,0.00,,,0.01,Wunderground v.1.15,2013-07-20 22:55:00,
2013-07-20 17:00:00,90.5,57.5,29.75,WSW,244,1.0,2.0,33,0.00,,,0.01,Wunderground v.1.15,2013-07-20 23:00:00,
2013-07-20 17:05:00,90.3,56.4,29.75,WSW,243,1.0,2.0,32,0.00,,,0.01,Wunderground v.1.15,2013-07-20 23:05:00,
2013-07-20 17:15:00,89.6,55.8,29.74,WSW,240,1.0,1.0,32,0.00,,,0.01,Wunderground v.1.15,2013-07-20 23:15:00,
2013-07-20 17:20:00,89.5,55.7,29.74,WSW,240,1.0,2.0,32,0.00,,,0.01,Wunderground v.1.15,2013-07-20 23:20:00,
2013-07-20 17:25:00,89.1,56.2,29.74,WSW,239,0.0,2.0,33,0.00,,,0.01,Wunderground v.1.15,2013-07-20 23:25:00,
2013-07-20 17:30:00,89.3,55.6,29.74,WSW,237,0.0,1.0,32,0.00,,,0.01,Wunderground v.1.15,2013-07-20 23:30:00,
2013-07-20 17:40:00,88.5,55.7,29.73,SW,230,0.0,2.0,33,0.00,,,0.01,Wunderground v.1.15,2013-07-20 23:40:00,
2013-07-20 17:44:00,87.7,55.0,29.73,South,186,1.0,2.0,33,0.00,,,0.01,Wunderground v.1.15,2013-07-20 23:44:00,
2013-07-20 17:49:00,87.2,54.6,29.73,South,186,1.0,1.0,33,0.00,,,0.01,Wunderground v.1.15,2013-07-20 23:49:00,
2013-07-20 17:54:00,86.9,55.2,29.74,South,186,0.0,1.0,34,0.00,,,0.01,Wunderground v.1.15,2013-07-20 23:54:00,
2013-07-20 17:59:00,86.5,54.0,29.73,South,186,0.0,0.0,33,0.00,,,0.01,Wunderground v.1.15,2013-07-20 23:59:00,
2013-07-20 18:05:00,85.9,54.3,29.73,South,182,0.0,0.0,34,0.00,,,0.01,Wunderground v.1.15,2013-07-21 00:05:00,
2013-07-20 18:10:00,85.4,54.6,29.73,South,182,0.0,0.0,35,0.00,,,0.01,Wunderground v.1.15,2013-07-21 00:10:00,
2013-07-20 18:15:00,85.1,54.4,29.73,South,182,0.0,0.0,35,0.00,,,0.01,Wunderground v.1.15,2013-07-21 00:15:00,
2013-07-20 18:20:00,85.0,54.3,29.73,South,182,0.0,0.0,35,0.00,,,0.01,Wunderground v.1.15,2013-07-21 00:20:00,
2013-07-20 18:30:00,85.0,54.3,29.73,South,182,0.0,1.0,35,0.00,,,0.01,Wunderground v.1.15,2013-07-21 00:30:00,
2013-07-20 18:35:00,85.1,54.4,29.73,South,182,0.0,1.0,35,0.00,,,0.01,Wunderground v.1.15,2013-07-21 00:35:00,
2013-07-20 18:40:00,85.1,52.8,29.73,South,182,0.0,0.0,33,0.00,,,0.01,Wunderground v.1.15,2013-07-21 00:40:00,
2013-07-20 18:45:00,85.0,52.7,29.73,South,182,0.0,0.0,33,0.00,,,0.01,Wunderground v.1.15,2013-07-21 00:45:00,
2013-07-20 18:49:00,84.9,52.6,29.73,South,182,0.0,0.0,33,0.00,,,0.01,Wunderground v.1.15,2013-07-21 00:49:00,
2013-07-20 18:54:00,84.6,53.1,29.74,South,179,0.0,0.0,34,0.00,,,0.01,Wunderground v.1.15,2013-07-21 00:54:00,
2013-07-20 18:59:00,84.3,52.9,29.74,South,170,1.0,1.0,34,0.00,,,0.01,Wunderground v.1.15,2013-07-21 00:59:00,
2013-07-20 19:04:00,84.0,53.4,29.74,South,170,1.0,1.0,35,0.00,,,0.01,Wunderground v.1.15,2013-07-21 01:04:00,
2013-07-20 19:10:00,83.9,53.3,29.74,South,170,1.0,1.0,35,0.00,,,0.01,Wunderground v.1.15,2013-07-21 01:10:00,
2013-07-20 19:15:00,83.8,52.4,29.74,South,170,1.0,1.0,34,0.00,,,0.01,Wunderground v.1.15,2013-07-21 01:15:00,
2013-07-20 19:20:00,83.6,52.3,29.74,South,170,1.0,1.0,34,0.00,,,0.01,Wunderground v.1.15,2013-07-21 01:20:00,
2013-07-20 19:25:00,83.6,52.3,29.75,South,170,0.0,1.0,34,0.00,,,0.01,Wunderground v.1.15,2013-07-21 01:25:00,
2013-07-20 19:30:00,83.5,52.2,29.75,South,170,0.0,2.0,34,0.00,,,0.01,Wunderground v.1.15,2013-07-21 01:30:00,
2013-07-20 19:35:00,83.3,52.8,29.75,South,170,0.0,2.0,35,0.00,,,0.01,Wunderground v.1.15,2013-07-21 01:35:00,
2013-07-20 19:40:00,83.2,52.7,29.75,South,170,0.0,0.0,35,0.00,,,0.01,Wunderground v.1.15,2013-07-21 01:40:00,
2013-07-20 19:45:00,83.1,53.4,29.74,South,170,0.0,0.0,36,0.00,,,0.01,Wunderground v.1.15,2013-07-21 01:45:00,
2013-07-20 19:50:00,82.9,53.2,29.74,South,170,0.0,0.0,36,0.00,,,0.01,Wunderground v.1.15,2013-07-21 01:50:00,
2013-07-20 19:54:00,82.8,53.1,29.75,South,170,0.0,0.0,36,0.00,,,0.01,Wunderground v.1.15,2013-07-21 01:54:00,
2013-07-20 19:59:00,82.6,54.4,29.75,South,170,0.0,3.0,38,0.00,,,0.01,Wunderground v.1.15,2013-07-21 01:59:00,
2013-07-20 20:04:00,82.5,54.3,29.75,South,170,1.0,3.0,38,0.00,,,0.01,Wunderground v.1.15,2013-07-21 02:04:00,
2013-07-20 20:09:00,82.1,54.0,29.75,SSW,194,1.0,1.0,38,0.00,,,0.01,Wunderground v.1.15,2013-07-21 02:09:00,
2013-07-20 20:15:00,81.6,54.2,29.76,SSW,195,1.0,1.0,39,0.00,,,0.01,Wunderground v.1.15,2013-07-21 02:15:00,
2013-07-20 20:20:00,81.1,53.8,29.76,WSW,251,1.0,1.0,39,0.00,,,0.01,Wunderground v.1.15,2013-07-21 02:20:00,
2013-07-20 20:25:00,80.6,54.0,29.76,WSW,246,1.0,1.0,40,0.00,,,0.01,Wunderground v.1.15,2013-07-21 02:25:00,
2013-07-20 20:30:00,80.2,53.7,29.76,WSW,249,1.0,1.0,40,0.00,,,0.01,Wunderground v.1.15,2013-07-21 02:30:00,
2013-07-20 20:39:00,79.6,53.8,29.77,WSW,246,1.0,1.0,41,0.00,,,0.01,Wunderground v.1.15,2013-07-21 02:39:00,
2013-07-20 20:45:00,79.3,52.9,29.77,WSW,246,1.0,1.0,40,0.00,,,0.01,Wunderground v.1.15,2013-07-21 02:45:00,
2013-07-20 20:50:00,78.9,53.2,29.77,WSW,248,1.0,1.0,41,0.00,,,0.01,Wunderground v.1.15,2013-07-21 02:50:00,
2013-07-20 20:55:00,78.7,53.0,29.77,WSW,248,1.0,2.0,41,0.00,,,0.01,Wunderground v.1.15,2013-07-21 02:55:00,
2013-07-20 21:00:00,78.6,52.9,29.78,WSW,249,0.0,0.0,41,0.00,,,0.01,Wunderground v.1.15,2013-07-21 03:00:00,
2013-07-20 21:04:00,78.4,53.4,29.78,WSW,249,0.0,0.0,42,0.00,,,0.01,Wunderground v.1.15,2013-07-21 03:04:00,
2013-07-20 21:15:00,78.0,52.4,29.79,WSW,249,0.0,0.0,41,0.00,,,0.01,Wunderground v.1.15,2013-07-21 03:15:00,
2013-07-20 21:20:00,77.9,51.6,29.80,WSW,249,0.0,0.0,40,0.00,,,0.01,Wunderground v.1.15,2013-07-21 03:20:00,
2013-07-20 21:25:00,77.8,52.2,29.81,WSW,249,0.0,0.0,41,0.00,,,0.01,Wunderground v.1.15,2013-07-21 03:25:00,
2013-07-20 21:30:00,77.7,52.1,29.81,WSW,249,0.0,5.0,41,0.00,,,0.01,Wunderground v.1.15,2013-07-21 03:30:00,
2013-07-20 21:35:00,77.5,52.6,29.82,West,260,0.0,5.0,42,0.00,,,0.01,Wunderground v.1.15,2013-07-21 03:35:00,
2013-07-20 21:40:00,76.8,52.6,29.83,NNE,14,3.0,5.0,43,0.00,,,0.01,Wunderground v.1.15,2013-07-21 03:40:00,
2013-07-20 21:54:00,74.2,52.7,29.83,North,9,4.0,5.0,47,0.00,,,0.01,Wunderground v.1.15,2013-07-21 03:54:00,
2013-07-20 22:04:00,73.3,52.4,29.83,NNE,25,3.0,4.0,48,0.00,,,0.01,Wunderground v.1.15,2013-07-21 04:04:00,
2013-07-20 22:09:00,73.0,52.7,29.83,NNE,25,3.0,4.0,49,0.00,,,0.01,Wunderground v.1.15,2013-07-21 04:09:00,
2013-07-20 22:14:00,72.9,52.1,29.83,NNE,24,2.0,7.0,48,0.00,,,0.01,Wunderground v.1.15,2013-07-21 04:14:00,
2013-07-20 22:20:00,72.8,52.5,29.83,NNE,24,3.0,3.0,49,0.00,,,0.01,Wunderground v.1.15,2013-07-21 04:20:00,
2013-07-20 22:25:00,72.7,52.4,29.82,NNE,19,3.0,3.0,49,0.00,,,0.01,Wunderground v.1.15,2013-07-21 04:25:00,
2013-07-20 22:30:00,72.7,52.4,29.83,NNE,19,2.0,3.0,49,0.00,,,0.01,Wunderground v.1.15,2013-07-21 04:30:00,
2013-07-20 22:35:00,72.7,52.4,29.83,NNE,19,2.0,3.0,49,0.00,,,0.01,Wunderground v.1.15,2013-07-21 04:35:00,
2013-07-20 22:40:00,72.7,53.0,29.82,NNE,19,2.0,2.0,50,0.00,,,0.01,Wunderground v.1.15,2013-07-21 04:40:00,
2013-07-20 22:45:00,72.8,52.5,29.82,NNE,19,1.0,2.0,49,0.00,,,0.01,Wunderground v.1.15,2013-07-21 04:45:00,
2013-07-20 22:55:00,72.8,52.5,29.82,NNE,19,1.0,2.0,49,0.00,,,0.01,Wunderground v.1.15,2013-07-21 04:55:00,
2013-07-20 23:00:00,72.8,52.5,29.82,NNE,19,1.0,1.0,49,0.00,,,0.01,Wunderground v.1.15,2013-07-21 05:00:00,
2013-07-20 23:05:00,72.9,52.6,29.82,NNE,19,0.0,1.0,49,0.00,,,0.01,Wunderground v.1.15,2013-07-21 05:05:00,
2013-07-20 23:10:00,73.0,52.7,29.82,NNE,19,1.0,3.0,49,0.00,,,0.01,Wunderground v.1.15,2013-07-21 05:10:00,
2013-07-20 23:15:00,73.1,52.8,29.82,NNE,19,2.0,3.0,49,0.00,,,0.01,Wunderground v.1.15,2013-07-21 05:15:00,
2013-07-20 23:19:00,73.0,52.7,29.82,NNE,19,2.0,2.0,49,0.00,,,0.01,Wunderground v.1.15,2013-07-21 05:19:00,
2013-07-20 23:24:00,73.0,52.7,29.82,NNE,19,2.0,2.0,49,0.00,,,0.01,Wunderground v.1.15,2013-07-21 05:24:00,
2013-07-20 23:29:00,72.9,52.6,29.82,NNE,19,1.0,1.0,49,0.00,,,0.01,Wunderground v.1.15,2013-07-21 05:29:00,
2013-07-20 23:34:00,72.7,52.4,29.82,NNE,19,0.0,1.0,49,0.00,,,0.01,Wunderground v.1.15,2013-07-21 05:34:00,
2013-07-20 23:39:00,72.6,52.9,29.82,NNE,19,0.0,0.0,50,0.00,,,0.01,Wunderground v.1.15,2013-07-21 05:39:00,
2013-07-20 23:44:00,72.5,53.3,29.82,NNE,19,0.0,0.0,51,0.00,,,0.01,Wunderground v.1.15,2013-07-21 05:44:00,
2013-07-20 23:50:00,72.4,52.7,29.82,NNE,19,0.0,0.0,50,0.00,,,0.01,Wunderground v.1.15,2013-07-21 05:50:00,
2013-07-20 23:55:00,72.3,52.6,29.82,NNE,19,0.0,0.0,50,0.00,,,0.01,Wunderground v.1.15,2013-07-21 05:55:00,